FW2664 Weather Reports


Display with metric or nautical units.
time (UTC)temp
F
wind
direction
speed
MPH
gust
MPH
rain 1hr
in
rain 24hr
in
rain mn
in
humidity
%
barometer
mb
20260510020632 63 73 2.0 3.0 0.00 0.00 0.00 71 1010.6
20260510020127 63 71 2.0 2.0 0.00 0.00 0.00 70 1010.8
20260510015624 63 67 2.0 3.0 0.00 0.00 0.00 69 1010.7
20260510015120 64 80 2.0 2.0 0.00 0.00 0.00 68 1010.6
20260510014615 64 79 2.0 2.0 0.00 0.00 0.00 68 1010.5
20260510014114 64 72 2.0 2.0 0.00 0.00 0.00 67 1010.3
20260510013608 65 71 2.0 2.0 0.00 0.00 0.00 65 1010.7
20260510013104 65 76 2.0 2.0 0.00 0.00 0.00 65 1010.2
20260510012603 66 77 2.0 2.0 0.00 0.00 0.00 64 1010.0
20260510012100 66 79 2.0 2.0 0.00 0.00 0.00 63 1010.1
20260510011559 66 84 1.0 2.0 0.00 0.00 0.00 62 1010.2
20260510011055 67 79 2.0 2.0 0.00 0.00 0.00 61 1010.0
20260510010552 68 79 2.0 2.0 0.00 0.00 0.00 60 1010.0
20260510010049 68 65 2.0 2.0 0.00 0.00 0.00 59 1010.0
20260510005550 69 87 2.0 2.0 0.00 0.00 0.00 58 1009.9
20260510005048 69 82 1.0 2.0 0.00 0.00 0.00 56 1009.9
20260510004545 70 83 2.0 2.0 0.00 0.00 0.00 55 1009.9
20260510004043 71 76 2.0 2.0 0.00 0.00 0.00 53 1009.8
20260510003540 72 71 2.0 2.0 0.00 0.00 0.00 52 1009.8
20260510003035 73 83 1.0 2.0 0.00 0.00 0.00 48 1009.7
20260510002530 74 95 2.0 2.0 0.00 0.00 0.00 47 1009.7
20260510002028 76 91 2.0 2.0 0.00 0.00 0.00 45 1009.6
20260510001525 76 93 1.0 2.0 0.00 0.00 0.00 44 1009.5
20260510001023 76 91 0.0 1.0 0.00 0.00 0.00 48 1009.6
20260510000518 76 92 1.0 2.0 0.00 0.00 0.00 45 1009.7
20260510000015 76 89 0.0 1.0 0.00 0.00 0.00 42 1009.4
20260509235512 77 28 0.0 1.0 0.00 0.00 0.00 40 1009.5
20260509235009 77 37 0.0 1.0 0.00 0.00 0.00 40 1009.4
20260509234505 78 269 0.0 1.0 0.00 0.00 0.00 39 1009.4
20260509234003 79 248 0.0 4.0 0.00 0.00 0.00 38 1009.4
20260509233500 81 235 0.0 2.0 0.00 0.00 0.00 37 1009.4
20260509232956 81 218 0.0 0.0 0.00 0.00 0.00 38 1009.4
20260509232454 81 272 0.0 1.0 0.00 0.00 0.00 38 1009.4
20260509231950 81 180 0.0 1.0 0.00 0.00 0.00 37 1009.4
20260509231447 82 267 2.0 2.0 0.00 0.00 0.00 36 1009.5
20260509230945 82 157 1.0 3.0 0.00 0.00 0.00 35 1009.4
20260509230441 82 121 2.0 2.0 0.00 0.00 0.00 36 1009.3
20260509225937 81 215 1.0 4.0 0.00 0.00 0.00 36 1009.3
20260509225434 81 304 1.0 2.0 0.00 0.00 0.00 36 1009.1
20260509224930 80 336 0.0 1.0 0.00 0.00 0.00 39 1009.2
20260509224425 80 212 2.0 2.0 0.00 0.00 0.00 37 1009.2
20260509223923 80 336 2.0 3.0 0.00 0.00 0.00 36 1009.0
20260509223419 80 358 2.0 3.0 0.00 0.00 0.00 35 1009.1
20260509222917 82 23 2.0 2.0 0.00 0.00 0.00 35 1009.0
20260509222412 82 274 1.0 2.0 0.00 0.00 0.00 36 1009.3
20260509221908 82 283 1.0 2.0 0.00 0.00 0.00 36 1009.1
20260509221405 82 282 3.0 3.0 0.00 0.00 0.00 37 1009.0
20260509220900 82 280 2.0 3.0 0.00 0.00 0.00 34 1009.1
20260509220356 82 142 0.0 3.0 0.00 0.00 0.00 36 1009.1
20260509215852 82 150 1.0 2.0 0.00 0.00 0.00 34 1009.0
20260509215349 82 173 0.0 3.0 0.00 0.00 0.00 36 1008.9
20260509214846 83 331 1.0 4.0 0.00 0.00 0.00 38 1009.1
20260509214343 83 308 1.0 2.0 0.00 0.00 0.00 35 1008.9
20260509213840 82 183 0.0 2.0 0.00 0.00 0.00 36 1008.8
20260509213335 82 129 0.0 3.0 0.00 0.00 0.00 36 1008.9
20260509212833 82 202 2.0 3.0 0.00 0.00 0.00 34 1008.7
20260509212331 82 113 2.0 4.0 0.00 0.00 0.00 38 1008.8
20260509211826 82 263 3.0 3.0 0.00 0.00 0.00 41 1008.8
20260509211322 82 74 2.0 4.0 0.00 0.00 0.00 37 1008.8
20260509210819 81 13 0.0 3.0 0.00 0.00 0.00 39 1008.8
20260509210317 82 164 0.0 4.0 0.00 0.00 0.00 39 1008.7
20260509205817 82 221 2.0 4.0 0.00 0.00 0.00 38 1008.9
20260509205312 82 77 0.0 3.0 0.00 0.00 0.00 39 1008.9
20260509204808 81 31 2.0 2.0 0.00 0.00 0.00 38 1008.9
20260509204304 80 18 0.0 4.0 0.00 0.00 0.00 41 1008.8
20260509203800 81 207 4.0 4.0 0.00 0.00 0.00 38 1008.8
20260509203258 81 225 2.0 3.0 0.00 0.00 0.00 40 1008.9
20260509202754 81 94 0.0 4.0 0.00 0.00 0.00 41 1008.7
20260509202250 80 171 2.0 4.0 0.00 0.00 0.00 39 1008.9
20260509201750 80 185 1.0 2.0 0.00 0.00 0.00 41 1008.9
20260509201247 80 333 2.0 2.0 0.00 0.00 0.00 45 1008.9
20260509200743 80 276 4.0 4.0 0.00 0.00 0.00 42 1008.9
20260509200244 79 191 1.0 4.0 0.00 0.00 0.00 41 1009.1
20260509195740 80 280 2.0 3.0 0.00 0.00 0.00 43 1009.3
20260509195236 80 53 0.0 3.0 0.00 0.00 0.00 46 1009.3
20260509194730 80 122 2.0 5.0 0.00 0.00 0.00 43 1009.4
20260509194227 80 147 2.0 3.0 0.00 0.00 0.00 47 1009.5
20260509193724 79 119 3.0 3.0 0.00 0.00 0.00 45 1009.5
20260509193223 78 104 0.0 2.0 0.00 0.00 0.00 49 1009.6
20260509192720 79 232 0.0 3.0 0.00 0.00 0.00 46 1009.6
20260509192215 79 57 1.0 5.0 0.00 0.00 0.00 49 1009.6
20260509191711 79 161 1.0 3.0 0.00 0.00 0.00 46 1009.8
20260509191207 80 271 0.0 3.0 0.00 0.00 0.00 48 1009.7
20260509190703 79 345 0.0 2.0 0.00 0.00 0.00 46 1009.8
20260509190201 77 138 0.0 5.0 0.00 0.00 0.00 47 1009.7
20260509185658 78 322 0.0 4.0 0.00 0.00 0.00 47 1009.8
20260509185154 78 143 2.0 4.0 0.00 0.00 0.00 47 1009.7
20260509184652 77 27 0.0 2.0 0.00 0.00 0.00 49 1009.5
20260509184149 77 92 2.0 4.0 0.00 0.00 0.00 50 1009.7
20260509183645 78 132 3.0 5.0 0.00 0.00 0.00 49 1009.6
20260509183140 77 99 2.0 2.0 0.00 0.00 0.00 53 1009.6
20260509182636 77 335 0.0 2.0 0.00 0.00 0.00 49 1009.7
20260509182134 77 269 0.0 5.0 0.00 0.00 0.00 48 1009.7
20260509181631 77 287 0.0 4.0 0.00 0.00 0.00 49 1009.5
20260509181129 77 130 4.0 5.0 0.00 0.00 0.00 51 1009.4
20260509180625 76 346 1.0 2.0 0.00 0.00 0.00 55 1009.5
20260509180122 75 64 5.0 6.0 0.00 0.00 0.00 52 1009.4
20260509175617 76 121 3.0 4.0 0.00 0.00 0.00 50 1009.8
20260509175115 76 132 2.0 4.0 0.00 0.00 0.00 51 1009.6
20260509174611 76 125 0.0 2.0 0.00 0.00 0.00 53 1009.4
20260509174106 75 265 2.0 4.0 0.00 0.00 0.00 53 1009.6
20260509173601 75 77 2.0 3.0 0.00 0.00 0.00 57 1009.4
20260509173057 76 56 3.0 4.0 0.00 0.00 0.00 54 1009.6
20260509172555 76 263 1.0 2.0 0.00 0.00 0.00 56 1009.4
20260509172050 75 106 1.0 3.0 0.00 0.00 0.00 54 1009.5
20260509171546 74 192 2.0 4.0 0.00 0.00 0.00 55 1009.8
20260509171043 74 117 3.0 6.0 0.00 0.00 0.00 58 1009.6
20260509170539 74 333 0.0 3.0 0.00 0.00 0.00 58 1009.8
20260509170035 74 53 2.0 4.0 0.00 0.00 0.00 57 1009.8
20260509165534 74 151 1.0 4.0 0.00 0.00 0.00 57 1009.8
20260509165029 73 82 3.0 4.0 0.00 0.00 0.00 57 1010.0
20260509164526 74 87 1.0 3.0 0.00 0.00 0.00 55 1009.9
20260509164021 74 251 0.0 2.0 0.00 0.00 0.00 53 1009.9
20260509163519 75 192 3.0 4.0 0.00 0.00 0.00 55 1009.9
20260509163014 74 85 1.0 2.0 0.00 0.00 0.00 57 1009.9
20260509162512 74 123 4.0 4.0 0.00 0.00 0.00 59 1010.0
20260509162008 74 173 0.0 3.0 0.00 0.00 0.00 59 1010.1
20260509161505 73 276 0.0 3.0 0.00 0.00 0.00 62 1010.1
20260509160959 73 254 2.0 4.0 0.00 0.00 0.00 58 1010.2
20260509160455 73 52 1.0 2.0 0.00 0.00 0.00 59 1010.1
20260509155956 72 159 1.0 3.0 0.00 0.00 0.00 65 1010.1
20260509155453 72 120 3.0 4.0 0.00 0.00 0.00 62 1009.9
20260509154949 73 239 4.0 5.0 0.00 0.00 0.00 61 1009.9
20260509154445 72 163 2.0 3.0 0.00 0.00 0.00 68 1009.9
20260509153943 71 248 2.0 3.0 0.00 0.00 0.00 63 1009.8
20260509153439 71 262 1.0 2.0 0.00 0.00 0.00 64 1009.7
20260509152937 70 266 1.0 3.0 0.00 0.00 0.00 67 1009.8
20260509152432 69 200 2.0 4.0 0.00 0.00 0.00 66 1009.8
20260509151930 70 213 2.0 4.0 0.00 0.00 0.00 64 1009.8
20260509151426 70 274 1.0 2.0 0.00 0.00 0.00 67 1009.7
20260509150924 70 196 3.0 6.0 0.00 0.00 0.00 65 1009.7
20260509150421 69 46 2.0 3.0 0.00 0.00 0.00 70 1009.6
20260509145919 69 285 2.0 6.0 0.00 0.00 0.00 68 1009.4
20260509145419 69 212 0.0 3.0 0.00 0.00 0.00 69 1009.4
20260509144915 69 199 3.0 4.0 0.00 0.00 0.00 68 1009.6
20260509144412 69 152 0.0 5.0 0.00 0.00 0.00 69 1009.5
20260509143909 68 213 3.0 5.0 0.00 0.00 0.00 69 1009.4
20260509143407 67 358 1.0 4.0 0.00 0.00 0.00 71 1009.7
20260509142903 68 29 0.0 5.0 0.00 0.00 0.00 71 1009.9
20260509142359 66 212 3.0 4.0 0.00 0.00 0.00 71 1009.6
20260509141855 67 87 1.0 5.0 0.00 0.00 0.00 71 1009.6
20260509141352 66 175 0.0 6.0 0.00 0.00 0.00 73 1009.5
20260509140848 67 243 0.0 4.0 0.00 0.00 0.00 72 1009.5
20260509140345 67 85 1.0 3.0 0.00 0.00 0.00 70 1009.5
20260509135843 67 95 3.0 3.0 0.00 0.00 0.00 73 1009.5
20260509135341 67 196 0.0 4.0 0.00 0.00 0.00 72 1009.5
20260509134838 67 236 1.0 3.0 0.00 0.00 0.00 72 1009.3
20260509134335 68 200 0.0 2.0 0.00 0.00 0.00 69 1009.4
20260509133831 67 129 0.0 3.0 0.00 0.00 0.00 70 1009.3
20260509133328 67 122 1.0 5.0 0.00 0.00 0.00 69 1009.2
20260509132828 67 183 0.0 3.0 0.00 0.00 0.00 70 1009.4
20260509132326 67 118 0.0 2.0 0.00 0.00 0.00 70 1009.5
20260509131822 66 102 1.0 2.0 0.00 0.00 0.00 71 1009.2
20260509131319 66 117 1.0 3.0 0.00 0.00 0.00 72 1009.1
20260509130815 65 42 1.0 2.0 0.00 0.00 0.00 74 1009.2
20260509130311 64 119 4.0 5.0 0.00 0.00 0.00 75 1009.2
20260509125808 63 125 1.0 2.0 0.00 0.00 0.00 76 1009.2
20260509125307 61 129 1.0 6.0 0.00 0.00 0.00 81 1009.3
20260509124801 60 100 2.0 3.0 0.00 0.00 0.00 83 1009.4
20260509124257 60 111 1.0 5.0 0.00 0.00 0.00 83 1009.4
20260509123755 60 4 2.0 5.0 0.00 0.00 0.00 83 1009.7
20260509123253 59 108 1.0 2.0 0.00 0.00 0.00 83 1009.5
20260509122748 59 111 1.0 5.0 0.00 0.00 0.00 83 1009.5
20260509122245 59 72 1.0 2.0 0.00 0.00 0.00 84 1009.4
20260509121742 59 193 0.0 3.0 0.00 0.00 0.00 84 1009.2
20260509121239 59 104 1.0 3.0 0.00 0.00 0.00 84 1009.1
20260509120737 58 96 2.0 2.0 0.00 0.00 0.00 84 1009.1
20260509120235 58 1 0.0 5.0 0.00 0.00 0.00 84 1008.9
20260509115733 58 98 2.0 4.0 0.00 0.00 0.00 83 1008.8
20260509115230 58 112 1.0 2.0 0.00 0.00 0.00 82 1008.6
20260509114728 59 87 3.0 3.0 0.00 0.00 0.00 82 1008.4
20260509114226 58 91 2.0 3.0 0.00 0.00 0.00 83 1008.3
20260509113725 57 88 2.0 3.0 0.00 0.00 0.00 85 1008.5
20260509113221 57 124 2.0 4.0 0.00 0.00 0.00 84 1008.6
20260509112718 57 101 2.0 5.0 0.00 0.00 0.00 85 1008.4
20260509112215 56 92 2.0 3.0 0.00 0.00 0.00 86 1008.5
20260509111712 56 97 1.0 2.0 0.00 0.00 0.00 86 1008.5
20260509111209 56 74 2.0 3.0 0.00 0.00 0.00 86 1008.4
20260509110707 56 95 2.0 3.0 0.00 0.00 0.00 85 1008.4
20260509110203 56 92 2.0 3.0 0.00 0.00 0.00 85 1008.4
20260509105701 56 74 2.0 3.0 0.00 0.00 0.00 85 1008.3
20260509105158 57 88 0.0 3.0 0.00 0.00 0.00 84 1008.4
20260509104655 57 80 3.0 5.0 0.00 0.00 0.00 84 1008.2
20260509104152 57 70 2.0 4.0 0.00 0.00 0.00 84 1008.1
20260509103650 57 83 1.0 2.0 0.00 0.00 0.00 84 1008.3
20260509103148 57 115 1.0 4.0 0.00 0.00 0.00 83 1008.3
20260509102645 57 82 2.0 3.0 0.00 0.00 0.00 83 1008.1
20260509102142 57 86 2.0 4.0 0.00 0.00 0.00 82 1008.2
20260509101638 57 105 2.0 5.0 0.00 0.00 0.00 82 1008.1
20260509101135 57 125 2.0 4.0 0.00 0.00 0.00 82 1008.4
20260509100632 57 108 2.0 3.0 0.00 0.00 0.00 82 1008.5
20260509100130 57 94 2.0 3.0 0.00 0.00 0.00 82 1008.7
20260509095626 57 120 3.0 4.0 0.00 0.00 0.00 82 1008.7
20260509095124 57 88 2.0 3.0 0.00 0.00 0.00 82 1008.8
20260509094619 57 130 1.0 3.0 0.00 0.00 0.00 81 1008.8
20260509094117 57 93 1.0 2.0 0.00 0.00 0.00 81 1008.7
20260509093615 58 59 2.0 2.0 0.00 0.00 0.00 80 1008.9
20260509093112 58 94 2.0 3.0 0.00 0.00 0.00 79 1008.9
20260509092610 58 86 1.0 1.0 0.00 0.00 0.00 80 1009.1
20260509092108 58 45 2.0 2.0 0.00 0.00 0.00 79 1008.8
20260509091606 59 88 2.0 2.0 0.00 0.00 0.00 78 1008.8
20260509091102 59 67 2.0 2.0 0.00 0.00 0.00 79 1008.9
20260509090559 59 94 2.0 2.0 0.00 0.00 0.00 78 1008.9
20260509090057 59 104 2.0 4.0 0.00 0.00 0.00 78 1008.8
20260509085554 58 80 2.0 3.0 0.00 0.00 0.00 78 1008.9
20260509085050 59 95 0.0 2.0 0.00 0.00 0.00 78 1008.7
20260509084547 59 82 3.0 3.0 0.00 0.00 0.00 77 1008.6
20260509084044 59 131 0.0 4.0 0.00 0.00 0.00 77 1009.0
20260509083542 59 75 2.0 2.0 0.00 0.00 0.00 78 1009.1
20260509083038 59 107 1.0 3.0 0.00 0.00 0.00 77 1009.0
20260509082536 59 89 2.0 2.0 0.00 0.00 0.00 77 1008.9
20260509082033 59 106 3.0 4.0 0.00 0.00 0.00 77 1008.9
20260509081530 59 60 0.0 2.0 0.00 0.00 0.00 77 1009.1
20260509081026 59 65 0.0 2.0 0.00 0.00 0.00 77 1008.7
20260509080525 59 87 1.0 3.0 0.00 0.00 0.00 77 1008.8
20260509080022 59 84 1.0 3.0 0.00 0.00 0.00 77 1008.9
20260509075519 59 121 4.0 4.0 0.00 0.00 0.00 77 1008.7
20260509075017 59 97 2.0 2.0 0.00 0.00 0.00 78 1008.8
20260509074514 59 87 1.0 3.0 0.00 0.00 0.00 78 1008.7
20260509074011 59 75 2.0 2.0 0.00 0.00 0.00 78 1008.8
20260509073507 59 81 2.0 3.0 0.00 0.00 0.00 77 1008.8
20260509073004 59 50 1.0 2.0 0.00 0.00 0.00 77 1008.9
20260509072500 59 97 2.0 4.0 0.00 0.00 0.00 76 1008.7
20260509071957 59 87 1.0 2.0 0.00 0.00 0.00 76 1008.6
20260509071453 59 88 1.0 2.0 0.00 0.00 0.00 76 1008.5
20260509070952 59 93 1.0 3.0 0.00 0.00 0.00 76 1008.7
20260509070448 59 94 1.0 2.0 0.00 0.00 0.00 76 1008.8
20260509065943 59 99 2.0 2.0 0.00 0.00 0.00 76 1008.6
20260509065440 59 69 2.0 3.0 0.00 0.00 0.00 75 1008.8
20260509064936 59 93 2.0 2.0 0.00 0.00 0.00 75 1009.2
20260509064434 59 86 2.0 2.0 0.00 0.00 0.00 75 1008.9
20260509063932 59 103 4.0 4.0 0.00 0.00 0.00 75 1009.0
20260509063427 59 89 1.0 2.0 0.00 0.00 0.00 75 1009.0
20260509062924 59 102 1.0 2.0 0.00 0.00 0.00 76 1009.2
20260509062422 59 103 1.0 2.0 0.00 0.00 0.00 75 1009.4
20260509061919 59 112 1.0 6.0 0.00 0.00 0.00 75 1009.3
20260509061417 59 88 1.0 2.0 0.00 0.00 0.00 75 1009.2
20260509060913 59 102 0.0 2.0 0.00 0.00 0.00 74 1009.4
20260509060411 59 66 0.0 2.0 0.00 0.00 0.00 73 1009.6
20260509055905 59 84 2.0 3.0 0.00 0.00 0.00 71 1009.5
20260509055401 60 78 2.0 2.0 0.00 0.00 0.00 71 1009.6
20260509054858 60 88 2.0 2.0 0.00 0.00 0.00 70 1009.6
20260509054355 60 151 2.0 4.0 0.00 0.00 0.00 69 1009.6
20260509053853 60 95 2.0 4.0 0.00 0.00 0.00 69 1009.8
20260509053350 60 98 2.0 2.0 0.00 0.00 0.00 68 1009.8
20260509052848 61 77 2.0 3.0 0.00 0.00 0.00 68 1009.9
20260509052345 60 120 2.0 7.0 0.00 0.00 0.00 67 1009.5
20260509051843 61 39 2.0 3.0 0.00 0.00 0.00 67 1009.6
20260509051341 61 96 2.0 2.0 0.00 0.00 0.00 67 1009.6
20260509050837 61 117 3.0 4.0 0.00 0.00 0.00 66 1009.9
20260509050334 61 52 2.0 3.0 0.00 0.00 0.00 66 1009.8
20260509045831 61 26 0.0 2.0 0.00 0.00 0.00 65 1009.6
20260509045328 61 107 4.0 4.0 0.00 0.00 0.00 65 1009.6
20260509044825 61 89 0.0 3.0 0.00 0.00 0.00 65 1009.7
20260509044323 61 94 1.0 3.0 0.00 0.00 0.00 64 1009.6
20260509043819 61 115 1.0 2.0 0.00 0.00 0.00 63 1009.4
20260509043315 61 88 2.0 2.0 0.00 0.00 0.00 63 1009.6
20260509042811 61 82 2.0 3.0 0.00 0.00 0.00 62 1009.6
20260509042308 62 97 2.0 2.0 0.00 0.00 0.00 61 1009.6
20260509041804 61 109 2.0 4.0 0.00 0.00 0.00 61 1009.6
20260509041302 61 89 1.0 2.0 0.00 0.00 0.00 62 1009.6
20260509040800 61 85 2.0 3.0 0.00 0.00 0.00 61 1009.9
20260509040257 62 79 2.0 3.0 0.00 0.00 0.00 60 1009.6
20260509035754 62 94 2.0 3.0 0.00 0.00 0.00 60 1009.7
20260509035251 62 79 2.0 3.0 0.00 0.00 0.00 59 1009.6
20260509034747 62 86 2.0 4.0 0.00 0.00 0.00 58 1009.7
20260509034245 63 37 2.0 2.0 0.00 0.00 0.00 58 1009.8
20260509033742 63 87 1.0 2.0 0.00 0.00 0.00 57 1009.8
20260509033239 63 93 2.0 2.0 0.00 0.00 0.00 57 1009.8
20260509032736 64 64 2.0 2.0 0.00 0.00 0.00 56 1009.8
20260509032233 64 104 1.0 3.0 0.00 0.00 0.00 55 1009.9
20260509031730 64 89 2.0 4.0 0.00 0.00 0.00 54 1009.8
20260509031228 64 93 1.0 2.0 0.00 0.00 0.00 55 1009.9
20260509030726 64 103 1.0 2.0 0.00 0.00 0.00 54 1009.9
20260509030223 65 94 2.0 4.0 0.00 0.00 0.00 53 1009.7
20260509025719 65 117 1.0 3.0 0.00 0.00 0.00 52 1009.7
20260509025215 65 134 0.0 4.0 0.00 0.00 0.00 52 1009.9
20260509024710 65 121 2.0 4.0 0.00 0.00 0.00 51 1009.7
20260509024206 66 108 2.0 6.0 0.00 0.00 0.00 51 1009.7
20260509023704 66 107 2.0 5.0 0.00 0.00 0.00 51 1009.7
20260509023201 66 100 2.0 5.0 0.00 0.00 0.00 50 1009.8
20260509022657 66 92 2.0 4.0 0.00 0.00 0.00 49 1009.7
20260509022155 66 122 2.0 5.0 0.00 0.00 0.00 49 1009.8
20260509021652 66 99 0.0 3.0 0.00 0.00 0.00 50 1009.9
20260509021149 67 107 2.0 5.0 0.00 0.00 0.00 48 1009.8